Flag for Sweden Weather past 2 weeks in Malmö, Sweden

Now
45 °F

Rain. Fog.


Feels Like: 36 °F
Forecast: 44 / 46 °F
Wind: 21 mph from West

Location: Malmo / Sturup

Current Time: Dec 22, 2014 at 3:56:15 AM

Latest Report: Dec 22, 2014 at 3:20 AM


Visibility: 4 mi

Pressure: 29.50 "Hg

Humidity: 100%

Dew point: 45 °F

Location of MalmöLocation

Historic Weather in Malmö — Graph

°F

Malmö temperature yesterday

Maximum temperature yesterday: 43 °F (at 12:20 PM)
Minimum temperature yesterday: 37 °F (at 1:20 AM)
Average temperature yesterday: 40 °F

Past Weeks' High & Low Weather Summary

 TemperatureHumidityPressure
High48 °F (Dec 18, 4:50 PM)100% (Dec 7, 2:50 AM)30.21 "Hg (Dec 7, 2:50 AM)
Low34 °F (Dec 14, 6:20 AM)75% (Dec 13, 2:20 AM)28.97 "Hg (Dec 12, 5:20 PM)
Average40 °F90%29.65 "Hg
* Reported Dec 7 2:20 AM — Dec 22 2:50 AM, Malmö, Weather by CustomWeather, © 2014

Note: Actual official high and low records may vary slightly from our data, if they occured in-between our weather recording intervals... More about our weather records

Advertising

Malmö weather history for previous 24 hours

 ConditionsComfort  
Time TempWeatherWind HumidityBarometerVisibility
2:50 AM
Dec 22
45 °FRain. Fog.21 mph100%29.50 "Hg3 mi
2:20 AM45 °FRain. Fog.20 mph100%29.53 "Hg4 mi
1:20 AM45 °FLight rain. Low clouds.18 mph93%29.56 "Hg5 mi
12:50 AM45 °FLight rain. Passing clouds.18 mph93%29.56 "Hg4 mi
12:20 AM43 °FLight rain. Low clouds.20 mph100%29.59 "Hg5 mi
11:50 PM
Dec 21
43 °FLight rain. Low clouds.21 mph100%29.62 "Hg6 mi
11:20 PM43 °FLight rain. Passing clouds.20 mph100%29.62 "Hg5 mi
10:20 PM43 °FLight rain. Low clouds.20 mph100%29.65 "Hg5 mi
9:50 PM43 °FLight rain. Low clouds.17 mph93%29.68 "Hg4 mi
9:20 PM43 °FLight rain. Low clouds.20 mph93%29.71 "Hg5 mi
8:50 PM43 °FLight rain. Passing clouds.18 mph93%29.71 "Hg4 mi
8:20 PM43 °FLight rain. Fog.18 mph93%29.74 "Hg4 mi
7:50 PM43 °FLight rain. Low clouds.18 mph93%29.74 "Hg3 mi
7:20 PM43 °FLight rain. Low clouds.20 mph93%29.77 "Hg4 mi
6:50 PM43 °FLight rain. Low clouds.20 mph93%29.77 "Hg5 mi
6:20 PM43 °FRain. Low clouds.17 mph93%29.80 "Hg3 mi
5:50 PM41 °FLight rain. Fog.18 mph100%29.83 "Hg4 mi
5:20 PM43 °FLight rain. Mostly cloudy.17 mph93%29.83 "Hg5 mi
4:50 PM41 °FLight rain. Fog.16 mph100%29.86 "Hg2 mi
4:20 PM41 °FLight rain. Mostly cloudy.13 mph93%29.86 "Hg6 mi
3:50 PM41 °FLight rain. Fog.15 mph93%29.89 "Hg5 mi
3:20 PM41 °FLight rain. Fog.17 mph87%29.92 "Hg6 mi
2:50 PM41 °FFog.15 mph93%29.92 "Hg6 mi
2:20 PM41 °FFog.15 mph87%29.92 "Hg6 mi
1:50 PM43 °FFog.14 mph81%29.95 "Hg5 mi
1:20 PM43 °FFog.13 mph81%29.95 "Hg6 mi
12:50 PM43 °FPartly sunny.17 mph87%29.95 "HgN/A
12:20 PM43 °FBroken clouds.20 mph87%29.95 "HgN/A
11:50 AM41 °FPartly sunny.17 mph87%29.95 "HgN/A
11:20 AM41 °FPassing clouds.16 mph87%29.95 "HgN/A
10:50 AM41 °FPassing clouds.14 mph87%29.95 "HgN/A
10:20 AM39 °FPassing clouds.12 mph93%29.95 "HgN/A
9:50 AM39 °FFog.9 mph93%29.95 "Hg5 mi
9:20 AM39 °FFog.10 mph93%29.95 "Hg5 mi
8:50 AM39 °FPartly sunny.12 mph87%29.95 "HgN/A
8:20 AM39 °FPassing clouds.14 mph87%29.95 "HgN/A
7:50 AM39 °FClear.14 mph87%29.92 "Hg10 mi
7:20 AM37 °FClear.14 mph93%29.89 "Hg10 mi
6:50 AM37 °FClear.14 mph87%29.89 "Hg10 mi
6:20 AM37 °FClear.16 mph87%29.89 "Hg10 mi
5:50 AM37 °FClear.16 mph87%29.86 "Hg10 mi
5:20 AM37 °FClear.17 mph87%29.86 "Hg10 mi
4:50 AM37 °FClear.15 mph87%29.86 "Hg10 mi
4:20 AM37 °FClear.17 mph87%29.86 "Hg10 mi
3:50 AM37 °FClear.16 mph87%29.86 "Hg10 mi
3:20 AM37 °FClear.16 mph93%29.83 "Hg10 mi
Weather by CustomWeather, © 2014

See weather overviewHow to use our weather pages